Cozumel, Mexico

9:32 PM EST on June 22, 2017 (GMT -0500)
Cozumel

Weather History for MMCZ - November, 2011

Change the Weather History Date:

Thursday, November 10, 2011

  Actual Average Record
Temperature  
Mean Temperature 74 °F -  
Max Temperature 78 °F 82 °F 87 °F (1998)
Min Temperature 69 °F 72 °F 59 °F (2012)
Cooling Degree Days 8    
Growing Degree Days 24 (Base 50)    
Moisture  
Dew Point 67 °F    
Average Humidity 82    
Maximum Humidity 94    
Minimum Humidity 69    
Precipitation  
Precipitation 0.00 in - - ()
Sea Level Pressure  
Sea Level Pressure 29.98 in    
Wind  
Wind Speed 9 mph ()    
Max Wind Speed 20 mph    
Max Gust Speed -    
Visibility 7.0 miles    
Events      
Averages and records for this station are not official NWS values.
T = Trace of Precipitation, MM = Missing Value Source: Averaged Metar Reports

Daily Weather History Graph

Daily Weather History Graph

Search for Another Location

Airport or City:

Trip Planner

Search our weather history database for the weather conditions in past years. The results will help you decide how hot, cold, wet, or windy it might be!

Date:

Astronomy

Nov. 10, 2011 Rise Set
Actual Time 5:54 AM CST 5:08 PM CST
Civil Twilight 5:31 AM CST 5:31 PM CST
Nautical Twilight 5:04 AM CST 5:58 PM CST
Astronomical Twilight 4:38 AM CST 6:24 PM CST
Moon 5:03 PM CST (11/10) 5:40 AM CST (11/10)
Length of Visible Light 12h 00m
Length of Day
11h 14m
Full, 100% of the Moon is Illuminated
Nov 10
Full
Nov 10
Full
Nov 18
Last Quarter
Nov 25
New
Dec 2
First Quarter

Hourly Weather History & Observations

Time (CST) Temp. Dew Point Humidity Pressure Visibility Wind Dir Wind Speed Gust Speed Precip Events Conditions
12:40 AM 71.6 °F 66.2 °F 83% 29.97 in 7.0 mi North 8.1 mph - N/A   Partly Cloudy
1:42 AM 71.6 °F 66.2 °F 83% 29.98 in 7.0 mi North 9.2 mph - N/A   Partly Cloudy
3:18 AM 69.8 °F 66.2 °F 88% 29.99 in 7.0 mi NNW 9.2 mph - N/A   Partly Cloudy
4:05 AM 69.8 °F 64.4 °F 83% 29.94 in 7.0 mi North 9.2 mph - N/A   Partly Cloudy
4:41 AM 71.6 °F 64.4 °F 78% 29.95 in 7.0 mi North 11.5 mph - N/A   Partly Cloudy
5:42 AM 69.8 °F 66.2 °F 88% 29.93 in 7.0 mi NNW 10.4 mph - N/A   Partly Cloudy
6:42 AM 71.6 °F 66.2 °F 83% 29.98 in 7.0 mi NNW 9.2 mph - N/A   Partly Cloudy
7:40 AM 73.4 °F 68.0 °F 83% 29.99 in 7.0 mi NW 12.7 mph - N/A   Scattered Clouds
8:40 AM 73.4 °F 68.0 °F 83% 30.04 in 7.0 mi NNW 11.5 mph - N/A   Scattered Clouds
9:40 AM 75.2 °F 68.0 °F 78% 30.01 in 7.0 mi NNW 9.2 mph - N/A   Scattered Clouds
10:40 AM 77.0 °F 66.2 °F 69% 30.01 in 7.0 mi North 5.8 mph - N/A   Mostly Cloudy
11:40 AM 78.8 °F 68.0 °F 69% 29.96 in 7.0 mi NNE 8.1 mph - N/A   Mostly Cloudy
12:40 PM 77.0 °F 69.8 °F 78% 29.96 in 7.0 mi NNE 10.4 mph - N/A   Mostly Cloudy
1:41 PM 77.0 °F 69.8 °F 78% 29.95 in 7.0 mi NE 6.9 mph - N/A   Mostly Cloudy
2:44 PM 73.4 °F 68.0 °F 83% 29.96 in 7.0 mi NE 9.2 mph - N/A   Scattered Clouds
3:46 PM 75.2 °F 68.0 °F 78% 29.93 in 7.0 mi NNE 6.9 mph - N/A   Scattered Clouds
4:43 PM 73.4 °F 66.2 °F 78% 29.94 in 7.0 mi NNE 4.6 mph - N/A   Mostly Cloudy
5:49 PM 73.4 °F 66.2 °F 78% 29.93 in 7.0 mi NNE 9.2 mph - N/A   Mostly Cloudy
6:45 PM 73.4 °F 66.2 °F 78% 29.98 in 7.0 mi North 11.5 mph - N/A   Scattered Clouds
7:46 PM 71.6 °F 66.2 °F 83% 30.02 in 7.0 mi North 11.5 mph - N/A   Scattered Clouds
8:45 PM 71.6 °F 66.2 °F 83% 30.04 in 7.0 mi North 11.5 mph - N/A   Partly Cloudy
9:42 PM 69.8 °F 68.0 °F 94% 30.03 in 7.0 mi North 15.0 mph - N/A   Partly Cloudy
10:48 PM 71.6 °F 68.0 °F 88% 30.03 in 7.0 mi North 15.0 mph - N/A   Partly Cloudy
11:46 PM 69.8 °F 68.0 °F 94% 30.00 in 7.0 mi North 19.6 mph - N/A   Mostly Cloudy